Regional Weather Roundup
Issued by NWS Bismarck, ND

Home | Current Version | Previous Version | Text Only | Print | Product List | Glossary On
Versions: 1 2 3 4 5 6 7 8 9 10 11 12 13 14 15 16 17 18 19 20 21 22 23 24 25 26 27 28 29 30 31 32 33 34 35 36 37 38 39 40 41 42 43 44 45 46 47 48 49 50
000
ASUS43 KBIS 171459
RWRBIS

NWR BROADCAST TEXT
NATIONAL WEATHER SERVICE BISMARCK ND
1000 AM CDT WED SEP 17 2014

NOTE: "FAIR" INDICATES FEW OR NO CLOUDS BELOW 12,000 FEET WITH NO
SIGNIFICANT WEATHER AND/OR OBSTRUCTIONS TO VISIBILITY.


CITY           SKY/WX    TMP DP  RH WIND       PRES   REMARKS
WILLISTON      SUNNY     54  43  66 CALM      29.96S
MINOT          SUNNY     54  45  71 S5        29.98R
MINOT AFB      NOT AVBL
BISMARCK       SUNNY     53  46  77 CALM      29.98R
DICKINSON      NOT AVBL
GARRISON         N/A     58  47  66 VRB3      29.97R
HETTINGER ARPT SUNNY     59  50  72 CALM      29.98S
JAMESTOWN      NOT AVBL
CARRINGTON     FAIR      55  48  76 MISG      29.98R
CROSBY         FAIR      54  45  71 E10       29.98S
HARVEY         FAIR      55  46  71 E8        29.98R
HAZEN          FAIR      50  43  76 CALM      29.98S
LINTON         FAIR      55  50  82 CALM      29.97R
MANDAN         FAIR      55  48  76 CALM      29.98S
OAKES            N/A     59  55  88 NW6       29.96R
RUGBY          FAIR      50  46  87 E14       29.99R
WATFORD CITY   FAIR      55  41  58 E3        29.95S
$$

CITY           SKY/WX    TMP DP  RH WIND       PRES   REMARKS
GRAND FORKS    MOSUNNY   54  49  83 N9        29.97R
GRAND FORKS AF NOT AVBL
DEVILS LAKE    SUNNY     52  43  71 NE14      29.98R
FARGO          SUNNY     60  49  66 N3        29.94R
CAVALIER       CLOUDY    46  45  93 N14       30.02R FOG
GRAFTON        CLOUDY    46  46 100 N17       30.00R
GWINNER        SUNNY     61  52  72 N9        29.97R
LANGDON        CLOUDY    46  45  93 NE14      30.01R
ROLLA          CLOUDY    45  45 100 NE12      30.03S
$$

CITY           SKY/WX    TMP DP  RH WIND       PRES   REMARKS
ABERDEEN       SUNNY     54  52  93 N5        29.96R
MOBRIDGE       SUNNY     60  53  77 CALM      29.94R
RAPID CITY     MOSUNNY   69  44  40 N7        29.97S
GLASGOW        PTSUNNY   56  41  57 SE9       29.91R
SIDNEY         PTSUNNY   52  43  71 CALM      29.97R
WOLF POINT     PTSUNNY   52  40  63 E8        29.93S
GLENDIVE       PTSUNNY   54  46  76 N5        29.96S
MILES CITY     PTSUNNY   55  48  77 NE8       29.91F
BAKER          PTSUNNY   59  49  69 SE8       29.96S
$$

CITY           SKY/WX    TMP DP  RH WIND       PRES   REMARKS
BILLINGS       MOSUNNY   66  46  48 SW13      29.95R
GREAT FALLS    MOSUNNY   65  48  54 CALM      29.91R
$$



USA.gov is the U.S. government's official web portal to all federal, state and local government web resources and services.